User: anonymous   Login
Location: Unspecified
(0.0000°N, 0.0000°E)
Time: 03:18:13
(UTC+00:00)
Language:

Galileo 6 - Orbit

View from above orbital plane
View from above orbital plane
View from above satellite
View from above satellite

Ground track
Ground track

The orbit data is extracted from the following two-line orbital elements,

1 40129U 14050B   19054.41167891 -.00000100  00000-0  00000+0 0  9993
2 40129  50.5954  19.5595 1659253  84.7197 293.8974  1.85519609 30905
Epoch (UTC): 23 February 2019 09:52:49
Eccentricity: 0.1659253
inclination: 50.5954°
perigee height: 16957 km
apogee height: 26241 km
right ascension of ascending node: 19.5595°
argument of perigee: 84.7197°
revolutions per day: 1.85519609
mean anomaly at epoch: 293.8974°
orbit number at epoch: 3090

The dashed part of the orbit path shows where the satellite is in the earth's shadow,  

DLR